Zurück zum Katalog

NOAA 16 DEB

AktivSSO
NORAD 42335·DEBRIS·🇺🇸 United States

Gestartet Sep 21, 2000 von Vandenberg Space Force Base

Loading…

Nächste Überflüge (nächste 24 Stunden)

TLE

AktuellSource: Space-Track

Epoche: Sep 14, 2026, 09:29 UTC

1 42335U 00055QB  26257.39569944  .00002471  00000-0  85284-3 0  9992
2 42335  98.5547 315.7276 0022090 286.1406  73.7349 14.36606257546017

Verfolge NOAA 16 DEB in Echtzeit mit AllMySat

Download on the App Store